Regional Weather Roundup
Issued by NWS Charleston, SC

Current Version | Previous Version | Text Only | Print | Product List | Glossary Off
Versions: 1 2 3 4 5 6 7 8 9 10 11 12 13 14 15 16 17 18 19 20 21 22 23 24 25 26 27 28 29 30 31 32 33 34 35 36 37 38 39 40 41 42 43 44 45 46 47 48 49 50
000 ASUS42 KCHS 162312 RWRCHS Regional Weather Roundup National Weather Service Charleston SC 600 PM EST SAT DEC 16 2017 NOTE: "fair" indicates few or no clouds below 12,000 feet with no significant weather and/or obstructions to visibility. Not all stations are quality controlled. Use data with caution, especially dewpoint observations. SCZ027-030-031-034>040-042>050-170000- ...Southeast South Carolina... CITY SKY/WX TMP DP RH WIND PRES REMARKS N Charleston PTCLDY 43 35 73 S6 30.27R Waterfront Prk N/A 49 40 70 SE5 30.12S Mount Pleasant FAIR 43 37 81 CALM 30.27S Johns Island FAIR 46 39 76 CALM 30.27S Pinopolis N/A 46 37 71 CALM 30.18S Moncks Corner FAIR 41 36 81 CALM 30.26S Summerville FAIR 43 34 70 CALM 30.27R Beaufort MCAS CLEAR 48 42 80 E3 30.27R Beaufort Arpt FAIR 45 37 76 E3 30.26S Hilton Head Is CLEAR 43 39 87 CALM 30.27F Walterboro CLEAR 43 32 65 CALM 30.28R Allendale FAIR 45 32 61 CALM 30.26R ...Southern Midlands and Pee Dee... CITY SKY/WX TMP DP RH WIND PRES REMARKS Georgetown FAIR 37 34 87 CALM 30.28R Kingstree FAIR 45 30 57 CALM 30.27R Orangeburg CLEAR 44 31 60 CALM 30.26R Barnwell N/A 45 36 70 CALM 30.26R Aiken FAIR 41 28 60 SW3 30.28R Manning FAIR 41 -6 13 MISG 30.26S Columbia CLOUDY 50 30 46 CALM 30.25R Sumter PTCLDY 43 29 56 CALM 30.23R Florence CLOUDY 44 29 55 CALM 30.26R Myrtle Beach CLEAR 44 33 65 CALM 30.28R N Myrtle Beach PTCLDY 44 34 67 SW5 30.27R $$ GAZ063-065-086>088-099>101-113>116-118-119-134>141-150-170000- ...Southeast Georgia... CITY SKY/WX TMP DP RH WIND PRES REMARKS Savannah Arpt NOT AVBL Hunter AAF N/A 47 36 67 SE5 N/A Fort Stewart N/A 46 38 73 CALM N/A Statesboro CLEAR 42 33 70 CALM 30.26S Sylvania CLEAR 46 37 70 CALM 30.27R Claxton FAIR 46 39 78 CALM 30.26S ...CSRA, Central and far Southeast Georgia... CITY SKY/WX TMP DP RH WIND PRES REMARKS Thomson CLEAR 42 31 64 CALM 30.30R Augusta-Bush CLEAR 43 31 62 CALM 30.25S Augusta-Daniel CLEAR 48 28 46 CALM 30.26R Swainsboro FAIR 43 36 75 CALM 30.26S Vidalia CLEAR 48 36 61 CALM 30.26R Eastman FAIR 49 24 37 CALM 30.28R Hazlehurst FAIR 47 28 47 CALM 30.25R Alma CLEAR 46 37 71 CALM 30.26R Waycross CLEAR 49 35 58 CALM 30.26R Jesup NOT AVBL Baxley FAIR 45 36 70 CALM 30.26R Brunswick CLEAR 50 39 66 SE5 30.27R Saint Simons CLEAR 50 40 68 CALM 30.26S $$ SCZ027-028-034-036>038-045-046-048>050-GAZ119-141-170000- ...Lake and Supplemental Coastal Observations... STATION/POSITION TIME TEMP WIND PRES WAVE SWELL AIR SEA DIR/SP/G HT/PER HT/PER/DIR (UTC) (F) (DEG/KT/KT) (MB) (FT/S) (FT/S/D) Winyah Bay NOT AVBL Lake Murray 2220 50 CALM / 3 1023.4 ACE Basin NERRS 2145 51 CALM 1025.0 Fort Pulaski 2248 48 53 120/ 4/ 5 1025.1R Sapelo Island 2200 51 110/ 3 1024.0 $$ ANZ835-935-AMZ111-154-330-350-352-354-370-450-454-472-170000- ...C-MAN and Buoy Observations... STATION/POSITION TIME TEMP WIND PRES WAVE SWELL AIR SEA DIR/SP/G HT/PER HT/PER/DIR (UTC) (F) (DEG/KT/KT) (MB) (FT/S) (FT/S/D) Buoy 41004 2250 56 73 60/ 4/ 6 1024.2R Buoy 41008 2250 51 58 60/ 6/ 6 1024.7R 1/11 2/120/11 Folly Beach CMAN 2200 49 80/ 5/ 5 1025.4S Capers Nearshore 2208 46 55 110/ 6/ 8 1024.5S STATION/POSITION TIME TEMP WIND PRES WAVE SWELL AIR SEA DIR/SP/G HT/PER HT/PER/DIR (UTC) (F) (DEG/KT/KT) (MB) (FT/S) (FT/S/D) 5E St. Marys GA 2230 62 N/A 2/10 Frying Pan Buoy 2250 52 68 260/ 8/ 12 1024.5R 2/ 6 2/130/ 6 Buoy 41025 2250 49 73 290/ 12/ 17 1023.9R 3/ 8 2/100/ 8 Cape Lookout NC 2200 250/ 5/ 6 1023.9S Buoy 41002 2250 62 74 360/ 6/ 10 1023.4R 6/ 7 5/320/ 7 Buoy 41010 NOT AVBL St Augustine FL 2300 56 63 10/ 11/ 12 1024.8R $$

USA.gov is the U.S. government's official web portal to all federal, state and local government web resources and services.